Zurück zum Katalog

ONEWEB-0283

AktivKommunikationPO
NORAD 49001·PAYLOAD·🇬🇧 United Kingdom

Gestartet Jul 1, 2021 von Vostochny Cosmodrome

Loading…

Nächste Überflüge (nächste 24 Stunden)

TLE

AktuellSource: CelesTrak SupGP

Epoche: Sep 14, 2026, 16:38 UTC

1 49001C 21060AL  26257.69324491  .00001553  00000+0  40667-2 0  2578
2 49001  87.9157 211.0062 0002183  76.6726 318.9089 13.16593161    18

Verfolge ONEWEB-0283 in Echtzeit mit AllMySat

Download on the App Store